Location: Bonningues
(50.7927°N, 2.0150°E)
Time: 10:18:21
(UTC+00:00)

Cosmos 1470 Rocket - Pass Details

Date: 08 August 2020
Orbit: 603 x 634 km, 82.5° (Epoch: 21 September)

Event Time Altitude Azimuth Distance (km) Brightness Sun altitude
Exits shadow 21:19:30 18° 181° (S) 1,561 5.2 -15.0°
Maximum altitude 21:22:49 75° 98° (E) 650 3.5 -15.3°
Drops below altitude 10° 21:27:13 10° 13° (NNE) 1,994 6.7 -15.7°
Sets 21:29:27 0° 12° (NNE) 2,899 7.6 -15.9°
